Weather History for KMTC - December, 2013

Change the Weather History Date:

Wednesday, December 4, 2013

  Actual Average Record
Temperature  
Mean Temperature 44 °F -  
Max Temperature 51 °F 37 °F 61 °F (1953)
Min Temperature 37 °F 26 °F 8 °F (2002)
Degree Days  
Heating Degree Days 21    
Moisture  
Dew Point 41 °F    
Average Humidity 96    
Maximum Humidity 100    
Minimum Humidity 86    
Precipitation  
Precipitation 0.00 in - - ()
Sea Level Pressure  
Sea Level Pressure 29.82 in    
Wind  
Wind Speed 6 mph (ESE)    
Max Wind Speed 18 mph    
Max Gust Speed 22 mph    
Visibility 6 miles    
Events Rain    
Averages and records for this station are not official NWS values.
T = Trace of Precipitation, MM = Missing Value Source: NWS Daily Summary

Daily Weather History Graph

Daily Weather History Graph

Search for Another Location

Airport or City:

Trip Planner

Search our weather history database for the weather conditions in past years. The results will help you decide how hot, cold, wet, or windy it might be!

Date:

Astronomy

Dec. 04, 2013 Rise Set
Actual Time 7:45 AM EST 4:58 PM EST
Civil Twilight 7:13 AM EST 5:29 PM EST
Nautical Twilight 6:38 AM EST 6:05 PM EST
Astronomical Twilight 6:04 AM EST 6:39 PM EST
Moon 9:11 AM EST (12/4) 7:08 PM EST (12/4)
Length of Visible Light 10h 16m
Length of Day
9h 13m
Waxing Crescent, 4% of the Moon is Illuminated
Dec 4
Waxing Crescent
Dec 9
First Quarter
Dec 17
Full
Dec 25
Last Quarter
Jan 1
New

Hourly Weather History & Observations

Time (EST) Temp. Windchill Dew Point Humidity Pressure Visibility Wind Dir Wind Speed Gust Speed Precip Events Conditions
12:08 AM 37.4 °F 32.8 °F 37.4 °F 100% 29.86 in 10.0 mi ESE 5.8 mph - N/A   Overcast
12:26 AM 37.4 °F - 37.4 °F 100% 29.87 in 10.0 mi ESE 2.3 mph - N/A Rain Light Rain
12:36 AM 37.4 °F 34.9 °F 37.4 °F 100% 29.87 in 10.0 mi ESE 3.5 mph - N/A   Overcast
12:58 AM 37.4 °F 34.9 °F 37.4 °F 100% 29.89 in 10.0 mi East 3.5 mph - 0.00 in   Overcast
1:08 AM 37.4 °F - 37.4 °F 100% 29.87 in 10.0 mi NE 2.3 mph - N/A   Overcast
1:18 AM 37.4 °F - 37.4 °F 100% 29.86 in 9.0 mi ENE 2.3 mph - N/A   Overcast
1:43 AM 37.4 °F 33.8 °F 37.4 °F 100% 29.86 in 9.0 mi East 4.6 mph - N/A   Overcast
1:58 AM 37.9 °F 34.4 °F 37.8 °F 99% 29.88 in 9.0 mi East 4.6 mph - N/A   Overcast
2:03 AM 37.4 °F 33.8 °F 37.4 °F 100% 29.85 in 9.0 mi East 4.6 mph - N/A   Overcast
2:33 AM 37.4 °F 34.9 °F 37.4 °F 100% 29.84 in 7.0 mi East 3.5 mph - N/A   Overcast
2:38 AM 37.4 °F - 37.4 °F 100% 29.85 in 6.0 mi ENE 2.3 mph - N/A   Overcast
2:53 AM 37.4 °F 33.8 °F 37.4 °F 100% 29.83 in 5.0 mi East 4.6 mph - N/A   Overcast
2:58 AM 37.2 °F - 37.0 °F 99% 29.87 in 5.0 mi East 2.3 mph - N/A   Overcast
3:33 AM 39.2 °F - 39.2 °F 100% 29.85 in 7.0 mi East 2.3 mph - N/A   Overcast
3:58 AM 39.2 °F 37.0 °F 38.8 °F 99% 29.89 in 7.0 mi ENE 3.5 mph - N/A   Overcast
4:08 AM 39.2 °F 37.0 °F 39.2 °F 100% 29.86 in 7.0 mi NE 3.5 mph - N/A   Overcast
4:23 AM 39.2 °F - 39.2 °F 100% 29.87 in 6.0 mi NNE 2.3 mph - N/A   Overcast
4:28 AM 39.2 °F - 39.2 °F 100% 29.87 in 7.0 mi NNE 2.3 mph - N/A   Overcast
4:33 AM 39.2 °F 37.0 °F 39.2 °F 100% 29.86 in 7.0 mi NE 3.5 mph - N/A   Overcast
4:58 AM 39.0 °F 36.8 °F 38.7 °F 99% 29.89 in 6.0 mi NE 3.5 mph - N/A   Overcast
5:58 AM 39.2 °F 37.0 °F 39.0 °F 99% 29.90 in 6.0 mi East 3.5 mph - N/A   Overcast
6:18 AM 39.2 °F 37.0 °F 39.2 °F 100% 29.88 in 5.0 mi East 3.5 mph - N/A   Overcast
6:53 AM 39.2 °F 33.6 °F 39.2 °F 100% 29.86 in 5.0 mi East 8.1 mph - N/A   Overcast
6:58 AM 39.2 °F 34.2 °F 39.0 °F 99% 29.90 in 5.0 mi ESE 6.9 mph - N/A   Overcast
7:25 AM 39.2 °F 35.9 °F 39.2 °F 100% 29.87 in 3.0 mi ESE 4.6 mph - N/A   Overcast
7:49 AM 39.2 °F 37.0 °F 39.2 °F 100% 29.87 in 2.0 mi ESE 3.5 mph - N/A   Overcast
7:55 AM 39.9 °F - 39.7 °F 99% 29.92 in 2.0 mi Calm Calm - N/A   Overcast
8:55 AM 41.5 °F 39.6 °F 41.2 °F 99% 29.93 in 2.0 mi SE 3.5 mph - N/A   Overcast
9:55 AM 43.0 °F 38.8 °F 42.4 °F 98% 29.93 in 2.5 mi SE 6.9 mph - N/A   Overcast
10:55 AM 44.1 °F 41.5 °F 42.6 °F 95% 29.92 in 2.5 mi East 4.6 mph - N/A   Overcast
11:34 AM 44.6 °F 40.2 °F 42.8 °F 93% 29.86 in 3.0 mi ESE 8.1 mph - N/A   Overcast
11:55 AM 44.6 °F 41.4 °F 43.2 °F 95% 29.88 in 3.0 mi ENE 5.8 mph - N/A   Mostly Cloudy
12:55 PM 48.2 °F - 45.7 °F 91% 29.85 in 3.0 mi ESE 8.1 mph - N/A   Overcast
1:55 PM 48.7 °F - 44.8 °F 86% 29.83 in 4.0 mi ESE 10.4 mph - N/A   Overcast
1:56 PM 48.7 °F - 44.8 °F 86% 29.83 in 4.0 mi ESE 10.4 mph - N/A   Overcast
2:55 PM 48.2 °F - 44.4 °F 87% 29.83 in 4.0 mi SSE 8.1 mph - N/A   Overcast
3:55 PM 46.4 °F 41.9 °F 44.1 °F 92% 29.82 in 3.0 mi ESE 9.2 mph - N/A   Overcast
4:55 PM 44.1 °F 39.0 °F 42.3 °F 93% 29.79 in 4.0 mi East 9.2 mph - N/A   Overcast
5:44 PM 44.6 °F 39.7 °F 42.8 °F 93% 29.73 in 4.0 mi East 9.2 mph - N/A   Overcast
5:55 PM 45.0 °F 40.1 °F 42.8 °F 92% 29.77 in 7.0 mi East 9.2 mph - N/A   Overcast
6:28 PM 46.4 °F 40.7 °F 42.8 °F 87% 29.71 in 7.0 mi ESE 12.7 mph - N/A   Light Drizzle
6:43 PM 48.2 °F - 44.6 °F 87% 29.71 in 7.0 mi ESE 13.8 mph 21.9 mph N/A   Overcast
6:47 PM 48.2 °F - 44.6 °F 87% 29.71 in 7.0 mi ESE 16.1 mph 21.9 mph N/A Rain Light Rain
6:55 PM 47.8 °F - 44.4 °F 88% 29.75 in 7.0 mi SE 15.0 mph - N/A Rain Light Rain
7:04 PM 48.2 °F - 44.6 °F 87% 29.71 in 7.0 mi SE 15.0 mph - N/A   Overcast
7:40 PM 46.4 °F 39.2 °F 44.6 °F 93% 29.70 in 7.0 mi SE 18.4 mph - N/A   Light Drizzle
7:55 PM 46.9 °F - 45.7 °F 95% 29.74 in 7.0 mi SE 12.7 mph - N/A   Light Drizzle
8:45 PM 48.2 °F - 46.4 °F 93% 29.68 in 10.0 mi SSE 12.7 mph - N/A   Overcast
8:56 PM 48.2 °F - 46.4 °F 93% 29.68 in 10.0 mi SSE 15.0 mph 20.7 mph N/A   Mostly Cloudy
8:58 PM 47.7 °F - 46.0 °F 94% 29.70 in 10.0 mi SSE 15.0 mph 20.7 mph N/A   Mostly Cloudy
9:08 PM 46.4 °F 40.7 °F 46.4 °F 100% 29.68 in 10.0 mi SSE 12.7 mph - N/A   Mostly Cloudy
9:58 PM 46.0 °F 41.4 °F 44.8 °F 95% 29.68 in 10.0 mi SSE 9.2 mph - N/A   Overcast
10:58 PM 51.1 °F - 47.7 °F 88% 29.66 in 10.0 mi South 13.8 mph - N/A   Overcast
11:58 PM 50.7 °F - 47.7 °F 89% 29.65 in 10.0 mi South 13.8 mph - N/A   Overcast